METEOR 2-7 DEB

Satellite information

Favourite Embed

Satellite Type and Status

DEBRISDECAYED

Key statistics

Satellite METEOR 2-7 DEB at a glance.

Uptime

15892

Days in orbit

Revolutions

≈ 14.5

Per day

Orbit

LEO

Low Earth Orbit

Inclination

81.2

Latest

Satellite identification and parameters

Extended collection of information and parameters for METEOR 2-7 DEB.

Object identification

Identified? True

Debris? True

Object name: METEOR 2-7 DEB

International designator: 1981-043G

Object number (NORAD): 28597

Object ID (CCSDS): 28597

Country: COMMONWEALTH OF INDEPENDENT STATES (CIS)

Current information (Y/N): Y

RCS size: SMALL

Orbital parameters

Decay date: Nov. 16, 2024

Period: 99.368 minutes

Inclination: 81.2483 deg

SMA: 7106.512 km

Apoapsis: 749.133 km

Periapsis: 707.622 km

RAAN: 13.2965 deg

Eccentricy: 0.0029206

Argument of periapsis: 194.1942 deg

Mean anomaly: 165.8433 deg

Mean motion: 14.49165491 rev/day

Mean motion (dot): 0.0001415 rev/day2

B* drag term: 0.0036907 1/REarth

Two-line elements (TLE)

Creation date: Feb. 5, 2024, 10:36 p.m.

Reference frame: TEME

Reference center: EARTH

Epoch: Feb. 5, 2024, 5:50 a.m. UTC

TLE line 0: 0 METEOR 2-7 DEB

TLE line 1: 1 28597U 81043G 24036.24370763 .00014150 00000-0 36907-2 0 9992

TLE line 2: 2 28597 81.2483 13.2965 0029206 194.1942 165.8433 14.49165491 76641

Live tracking on map

Satellite METEOR 2-7 DEB has decayed and is no longer in orbit. No tracking available.

In-orbit conjunctions

Satellite METEOR 2-7 DEB has decayed and is no longer in orbit. No conjunctions available.

Associated space launch

Second generation soviet meteorological satellite

METEOR 2-7 DEB was lifted into orbit during the mission ‘Vostok 8A92M | Meteor-2 7’, on board a Vostok 8A92M space rocket.

The launch took place on May 14, 1981, 9:45 p.m. from 43/3 (43L).

For more information about the launch, click the button.

Launch to space Vostok 8A92M | Meteor-2 7
Vostok 8A92M | Meteor-2 7

Agency: N/A

Status: Launch Successful

Launch date: May 14, 1981, 9:45 p.m. UTC

Rocket: Vostok 8A92M

Launch pad: 43/3 (43L)

Location: Plesetsk Cosmodrome, Russian Federation

...

Latest news about this satellite

There are no fresh news available about this satellite. Check back as we update our databases every day.


Newsletter sign-up

Weekly statistics, charts and insights to help you stay on top of the space industry.